Terug naar catalogus

BEIBUWAN-1

ActiefWetenschapSSO
NORAD 66055·PAYLOAD·🇨🇳 China
Deze satellietnaam is nog niet bevestigd door officiële bronnen.

Gelanceerd Oct 19, 2025 vanaf Jiuquan Satellite Launch Center

Loading…

Volgende Passages (komende 24 uur)

TLE

VersSource: Space-Track

Epoch: Sep 13, 2026, 18:17 UTC

1 66055U 25234C   26256.76240026  .00003464  00000-0  14209-3 0  9992
2 66055  97.4175 324.3295 0013872 200.6185 159.4495 15.24833351 50184

Volg BEIBUWAN-1 in realtime met AllMySat

Download on the App Store